GFSFLT1_850_thetae_000.txt.gz
Theta_e
349 348 346 348 351 350 350 348 341 333 330 331 328 326 327 327 326 332 333 334 331 332 332 332 327 330 330 331 330 331 332 332 334
349 346 346 348 349 349 348 342 335 327 327 326 323 329 328 332 335 335 332 328 329 332 330 331 330 326 329 330 332 332 333 333 333
350 345 345 347 347 347 344 341 335 326 322 324 329 330 330 333 333 334 333 331 329 329 328 327 324 328 332 331 332 331 330 331 331
349 345 343 345 347 347 341 340 337 323 323 327 330 331 332 330 332 333 331 329 332 333 331 327 327 328 326 331 332 331 330 330 329
346 347 340 339 345 346 340 339 335 333 334 335 335 335 333 332 332 330 329 329 331 331 331 329 324 325 330 332 332 332 331 331 330
346 348 343 339 342 343 340 339 336 334 334 332 332 333 332 333 332 332 331 330 329 329 329 329 331 332 331 328 331 331 331 331 329
344 346 344 341 340 340 340 339 336 334 333 331 332 332 331 332 333 332 331 328 326 329 331 331 331 332 331 331 332 331 331 330 328
342 343 343 343 341 340 341 339 337 328 333 332 331 332 332 332 333 333 329 329 331 332 332 330 331 330 330 330 330 330 328 326 327
338 341 342 343 342 341 341 339 335 329 332 331 332 333 332 332 333 334 334 332 333 331 330 329 330 329 329 330 330 329 324 325 327
336 338 341 341 341 341 340 337 331 331 331 330 333 330 332 333 334 334 333 331 331 330 331 330 329 328 328 329 329 326 324 325 326
335 336 339 340 340 340 339 333 330 331 330 333 332 331 333 333 334 334 333 331 330 330 330 329 328 328 328 328 326 322 319 321 325
337 337 339 340 340 339 335 332 330 331 332 332 332 332 332 332 333 333 333 331 331 331 329 327 326 327 328 327 327 323 318 321 326
337 338 339 340 338 335 333 328 331 332 332 333 332 332 332 331 332 333 332 331 330 329 328 326 326 326 327 327 326 325 319 322 325
336 337 337 338 336 333 331 332 332 332 333 333 333 332 331 330 332 333 331 330 330 329 327 326 326 327 327 326 324 323 321 323 324
336 336 335 335 334 333 333 334 332 333 335 329 333 332 332 330 326 331 329 330 329 328 323 320 327 328 327 325 325 325 323 321 323
336 335 335 334 334 336 337 338 336 337 337 337 336 335 326 327 323 326 333 328 325 327 325 324 323 325 324 324 324 324 324 321 320
336 335 335 335 334 334 335 335 333 334 337 338 333 327 324 325 326 332 332 328 328 327 325 325 325 325 324 323 323 324 323 320 320
331 332 330 324 325 332 333 332 334 334 331 329 326 324 324 331 330 330 329 327 322 325 322 321 321 324 323 323 322 321 319 319 319
330 331 324 327 324 329 331 331 331 327 325 324 323 326 328 329 327 327 325 326 324 321 321 321 320 320 320 320 318 319 319 319 320
326 324 328 332 332 331 331 330 329 325 324 323 325 328 328 326 325 324 326 326 322 322 321 320 319 319 317 318 318 318 318 319 320

GFSFLT1_850_thetae_003.txt.gz
Theta_e
344 345 345 345 346 348 352 349 349 343 335 321 334 337 337 332 335 334 334 335 336 333 334 333 334 335 335 335 335 335 335 336 336
346 346 347 346 347 351 350 349 346 343 323 329 339 337 342 340 339 338 336 330 333 334 333 334 333 334 334 334 334 334 333 334 334
343 347 348 346 346 351 349 349 344 341 334 334 339 338 339 335 334 336 337 336 336 335 335 335 335 334 333 334 334 333 334 333 332
342 346 349 346 346 349 349 347 343 339 339 340 339 339 339 336 334 335 335 334 334 334 335 335 335 334 333 334 335 334 334 332 333
340 347 350 346 347 348 348 344 342 339 337 338 339 338 338 336 335 335 335 334 333 334 333 334 334 333 333 333 334 333 334 333 333
340 345 349 346 347 348 349 344 342 338 335 335 336 336 337 336 336 336 336 335 334 333 332 333 333 333 333 333 333 333 333 333 332
338 343 347 346 344 347 350 344 342 337 336 335 334 334 333 334 335 336 336 335 334 334 334 334 333 332 332 332 332 333 333 333 332
336 341 345 347 343 343 349 344 342 339 336 335 334 334 334 334 335 336 337 336 335 334 334 332 332 331 331 331 330 329 331 332 330
332 335 343 346 346 344 347 344 343 340 336 336 336 336 335 335 335 335 336 335 334 334 332 331 331 331 330 331 329 328 327 324 322
333 333 338 343 346 346 345 344 343 339 335 336 335 336 335 336 336 337 336 334 333 333 332 331 332 331 330 329 330 327 326 323 319
336 335 335 340 344 346 345 344 342 335 335 335 335 336 337 336 336 336 336 334 333 332 332 332 332 330 329 330 328 327 326 324 320
338 339 338 339 343 344 344 343 338 332 334 334 335 337 337 337 336 336 336 334 334 332 333 331 331 329 328 329 329 329 327 325 322
339 340 342 342 343 343 344 340 333 333 335 335 335 336 336 336 335 334 335 334 334 333 332 331 329 328 327 327 328 328 326 320 324
339 340 343 343 343 343 340 335 332 331 332 334 334 336 335 335 335 334 334 335 332 325 333 331 327 329 328 328 328 326 326 324 320
338 339 341 342 341 339 337 334 334 334 335 335 337 337 336 334 333 335 331 326 328 335 332 331 331 323 325 323 320 325 324 325 324
339 339 339 339 339 337 335 335 338 341 341 342 341 339 336 335 337 333 332 330 335 333 329 329 326 326 324 325 324 325 325 325 324
340 339 339 338 338 337 339 341 343 343 342 341 342 341 340 340 336 333 334 333 331 329 328 327 324 324 325 323 324 324 323 322 318
341 340 340 339 339 338 338 340 340 340 341 342 340 338 336 334 332 331 331 331 329 327 326 324 321 323 323 323 323 320 317 318 319
337 338 336 336 329 334 338 337 337 337 337 337 336 335 333 331 329 328 326 327 326 325 321 320 320 320 319 319 318 317 317 318 319
335 335 324 327 333 333 334 335 336 335 334 333 333 332 329 327 326 325 326 328 328 326 322 321 320 319 319 317 316 317 316 316 318

GFSFLT1_850_thetae_006.txt.gz
Theta_e
342 341 345 345 346 344 347 349 351 353 346 321 320 329 333 330 325 335 337 336 337 334 332 334 333 333 336 333 333 333 333 330 334
344 342 342 345 346 347 348 350 351 350 345 324 322 335 335 333 337 328 325 333 331 326 336 335 334 335 333 331 332 332 331 332 331
339 344 344 344 345 349 351 351 350 348 344 330 328 338 336 339 336 335 333 330 324 326 327 329 331 331 332 332 332 331 331 331 332
336 337 344 347 346 349 352 351 350 348 344 339 338 338 340 339 333 334 336 335 333 334 335 335 334 332 333 331 331 330 333 332 331
337 340 341 349 348 351 353 350 350 347 343 342 341 340 339 338 334 331 335 335 335 335 334 333 333 332 332 331 331 332 331 332 330
338 339 345 350 349 348 352 350 350 345 341 341 341 340 339 336 335 334 333 334 335 334 334 332 333 333 332 331 330 330 329 330 329
337 341 341 349 349 348 350 350 349 344 341 338 338 338 338 337 335 335 333 336 337 335 334 334 333 331 330 328 331 330 329 331 332
334 336 341 347 348 348 350 350 348 344 341 337 336 335 335 334 335 335 335 337 336 333 333 334 333 330 331 331 331 330 329 330 327
333 333 334 338 349 346 352 351 347 344 340 336 335 335 334 334 335 336 336 336 336 335 334 334 332 331 331 331 329 328 327 326 326
334 334 334 335 341 349 351 352 347 343 340 337 335 334 330 330 333 333 335 335 335 334 334 331 329 330 332 328 328 329 328 326 325
334 334 335 335 339 344 348 350 346 344 342 338 336 336 329 329 331 335 336 336 334 334 333 330 330 331 327 327 327 328 327 326 325
335 336 338 338 336 342 349 348 346 344 342 337 336 335 331 332 331 336 336 336 335 334 334 329 329 329 326 329 327 327 327 326 326
338 338 340 339 340 342 347 346 346 344 339 335 336 333 332 332 334 337 336 336 335 334 334 331 324 331 331 330 328 326 324 324 322
338 339 342 344 343 344 347 345 344 342 335 334 333 335 336 337 337 336 335 334 335 335 332 328 330 329 326 328 325 325 324 324 324
337 338 341 344 344 346 345 344 341 336 333 333 336 336 336 337 337 336 335 334 334 331 326 330 331 329 327 323 325 323 325 323 325
338 338 339 342 344 344 343 341 336 336 339 341 341 341 339 338 337 335 335 335 332 329 330 330 329 328 326 327 325 324 323 325 322
339 338 340 341 342 343 339 338 339 341 343 342 337 333 340 340 339 337 338 334 331 331 331 331 329 326 324 324 323 324 323 319 318
341 342 340 342 343 342 341 340 339 336 339 336 341 343 343 340 338 336 331 333 331 331 328 326 325 322 320 321 321 321 318 316 317
342 340 340 340 338 336 333 332 330 327 323 332 338 338 337 335 335 332 330 329 328 326 326 325 322 319 320 320 319 318 316 316 314
339 339 337 335 329 327 327 329 335 337 336 336 336 333 330 330 329 327 327 328 329 328 325 325 323 320 320 318 316 315 315 314 312

GFSFLT1_850_thetae_009.txt.gz
Theta_e
341 343 344 346 346 347 348 350 349 348 349 348 322 320 325 323 321 320 334 333 335 335 333 330 333 333 334 333 327 332 332 331 331
340 341 343 344 345 345 346 349 349 346 348 341 320 322 326 326 326 318 329 331 333 335 323 332 334 335 334 329 323 331 331 331 331
341 340 343 344 344 344 344 348 348 348 349 338 320 322 329 330 329 328 322 320 320 319 321 326 328 327 328 329 325 325 329 331 331
342 342 345 344 346 344 343 348 348 349 350 347 326 324 330 335 335 330 323 323 322 321 326 330 332 331 329 326 328 330 331 332 331
336 340 342 340 342 347 347 349 349 349 350 348 339 326 330 337 337 329 329 331 328 329 331 330 329 328 331 332 330 329 329 327 329
336 335 339 344 344 340 352 350 350 350 350 349 344 328 332 338 338 327 326 325 327 329 329 328 330 332 332 330 328 328 329 330 328
338 338 342 347 348 349 352 351 351 350 349 347 345 334 334 337 336 331 328 325 325 328 326 325 330 333 332 329 331 329 329 329 329
334 338 343 349 350 353 351 352 351 351 349 346 341 338 338 338 337 334 330 326 324 325 326 327 331 332 330 329 330 331 328 330 327
334 334 333 340 350 350 353 352 351 350 349 343 339 338 338 337 335 333 327 325 324 328 329 331 333 332 330 329 330 329 326 328 328
334 333 333 334 333 346 351 351 351 350 344 343 338 338 337 335 335 330 325 325 328 330 332 334 332 326 328 329 328 325 326 327 326
334 334 334 334 334 336 349 351 351 349 347 344 337 336 335 335 331 325 322 328 333 334 333 333 331 325 327 327 325 328 327 327 326
334 335 336 336 334 339 346 349 351 348 344 339 337 336 336 332 326 323 326 331 335 334 335 333 331 330 329 326 330 328 328 326 324
337 336 333 330 329 338 344 349 352 349 345 343 338 338 335 327 330 328 331 334 336 336 335 334 334 330 329 327 328 328 327 324 323
336 337 335 330 328 342 344 350 350 347 344 342 342 339 327 330 332 332 333 334 336 336 335 334 332 328 329 328 327 328 325 324 323
337 337 338 338 339 342 346 349 347 345 344 343 340 334 334 336 335 336 337 336 336 336 335 333 328 328 327 327 325 326 326 324 323
330 337 337 341 345 349 349 348 345 342 342 341 343 339 339 339 339 339 338 337 335 336 333 331 326 328 328 327 327 326 323 323 322
332 338 340 345 348 347 346 344 342 341 339 336 330 331 328 326 326 333 338 337 335 334 332 326 326 327 326 325 323 321 323 322 318
340 342 343 343 343 335 338 337 340 339 335 331 328 326 325 324 325 331 332 331 331 329 328 322 326 326 324 320 320 320 319 318 316
341 339 340 335 333 339 334 338 332 335 331 322 327 325 326 334 332 333 332 331 329 327 326 326 325 324 322 321 320 319 318 315 314
340 339 339 333 334 335 333 331 330 325 325 328 334 331 328 331 330 329 328 328 327 326 325 325 325 323 320 319 318 317 316 312 313

GFSFLT1_850_thetae_015.txt.gz
Theta_e
342 345 348 350 349 349 349 347 345 342 341 332 327 327 325 323 323 321 320 319 320 322 321 321 324 328 330 330 330 329 323 322 327
340 343 346 348 348 348 349 348 344 341 342 340 329 326 326 326 326 321 317 317 317 317 320 324 332 325 326 328 329 326 325 322 325
340 343 345 347 348 348 348 347 343 341 344 346 336 329 327 326 325 322 318 319 320 320 327 332 327 323 328 328 324 324 325 326 328
340 343 344 345 346 347 346 347 345 341 344 346 346 340 333 328 324 324 320 317 318 319 320 319 320 323 326 326 325 328 329 328 328
340 341 343 344 345 346 347 347 346 345 343 344 346 347 343 331 323 324 325 319 319 319 319 320 322 324 324 326 327 327 326 326 327
340 342 342 344 344 345 346 346 345 345 346 345 346 348 348 339 325 325 328 321 321 321 320 320 321 322 323 324 327 327 328 328 327
339 339 340 342 344 345 345 345 345 346 347 348 348 348 350 346 328 331 328 323 321 320 320 321 321 322 323 324 327 329 329 329 329
339 340 339 340 341 342 343 344 345 346 346 347 347 349 350 350 336 333 327 327 321 320 321 320 322 324 325 327 331 331 328 329 327
337 338 340 340 340 341 341 341 343 344 345 346 347 350 351 342 328 328 332 336 326 322 321 322 322 326 328 330 330 330 328 328 325
337 337 337 340 340 340 341 343 343 343 343 345 347 351 351 347 331 334 335 334 336 326 321 321 322 327 332 330 327 328 328 327 325
336 336 337 337 337 338 336 336 339 342 343 344 348 350 349 347 343 339 337 334 338 333 322 324 324 328 331 332 331 330 329 327 325
335 333 332 332 332 330 329 328 330 335 339 342 348 350 349 348 343 342 336 336 338 336 330 324 329 328 330 330 331 331 328 328 327
332 332 332 332 332 331 330 330 329 334 341 346 348 348 348 348 344 341 337 337 337 336 333 330 332 329 331 331 331 329 327 326 327
334 334 333 333 333 332 332 331 330 332 345 347 348 349 348 346 343 340 340 339 338 337 335 333 333 330 332 332 332 328 323 326 327
335 335 336 335 334 335 335 333 331 332 342 347 349 347 346 345 342 340 340 338 335 333 329 331 335 333 333 331 330 326 326 327 326
331 332 330 330 329 330 339 337 335 343 347 348 346 345 343 342 338 337 336 331 329 327 326 327 332 331 331 329 327 325 326 327 326
333 334 334 334 333 334 341 342 344 347 346 345 343 342 340 337 337 334 328 327 329 331 327 329 329 329 329 327 325 326 327 325 323
336 335 339 340 340 344 345 345 345 343 343 341 340 337 331 330 333 327 326 327 327 329 328 330 330 329 325 324 325 325 324 321 319
338 336 341 341 344 345 340 341 341 340 339 336 328 327 327 327 326 326 326 327 328 330 331 330 328 325 324 324 323 321 321 319 317
339 341 341 342 340 338 338 339 339 338 334 330 331 332 322 321 323 325 328 329 328 329 328 327 326 324 324 323 321 319 318 317 316

GFSFLT1_850_thetae_021.txt.gz
Theta_e
345 345 345 345 345 344 346 346 346 346 345 346 344 341 342 343 343 342 341 333 327 331 328 332 335 332 328 330 331 330 328 327 324
344 345 345 345 346 345 346 346 347 346 346 346 342 338 340 340 340 342 338 327 326 326 326 329 330 328 325 328 329 328 328 326 325
342 344 346 346 346 345 345 346 347 347 347 347 341 333 336 341 337 339 338 337 326 323 318 323 323 322 327 329 327 327 325 322 324
339 342 344 345 346 346 345 345 346 347 347 347 347 335 331 337 338 342 337 328 329 321 319 319 322 325 328 330 325 327 324 324 327
337 340 342 344 347 348 345 345 346 347 347 347 347 347 334 333 341 343 334 330 327 321 321 323 325 327 328 323 324 326 325 327 328
336 339 341 344 346 346 344 344 345 346 346 347 347 348 346 339 337 345 339 327 327 324 322 322 324 325 321 321 324 324 325 325 327
336 338 341 343 344 343 342 343 343 344 345 348 349 348 349 346 341 344 345 339 327 324 330 333 329 320 320 322 324 324 325 327 326
338 339 341 339 338 339 340 341 341 341 344 346 348 349 349 349 347 346 348 344 331 327 335 333 331 321 326 325 324 324 326 327 325
340 339 337 337 337 338 339 339 340 342 344 345 347 348 349 349 349 349 349 348 341 336 333 338 334 328 326 329 324 324 327 328 327
335 336 337 337 338 338 339 340 341 341 343 344 344 345 346 346 347 348 349 349 345 337 338 336 335 332 327 330 330 327 326 329 328
334 337 338 338 338 338 339 339 340 341 342 342 343 343 344 346 347 348 348 348 348 343 340 337 339 332 325 333 331 328 325 330 329
332 334 336 337 338 338 339 339 339 340 338 337 339 340 342 344 346 348 348 347 346 338 336 339 333 330 325 332 332 328 329 329 329
332 333 336 337 338 338 339 339 336 331 332 334 334 336 340 344 346 348 348 347 344 337 334 335 336 333 330 331 330 326 330 324 325
333 336 337 337 336 333 331 330 330 330 331 332 331 333 343 346 346 348 347 345 343 338 338 336 338 334 333 332 328 328 326 326 328
337 334 333 332 331 330 331 332 333 332 333 334 337 343 344 343 346 346 345 344 343 340 338 338 335 334 333 331 331 331 329 329 328
332 332 331 331 330 330 331 336 335 334 335 337 337 345 344 342 344 344 343 343 341 341 339 337 336 333 332 328 326 327 328 328 328
332 331 330 330 327 328 332 337 339 339 338 343 344 342 341 344 343 343 341 340 339 338 338 336 334 326 327 327 327 327 327 327 325
335 336 334 332 332 334 338 341 338 340 340 339 335 340 342 341 340 339 338 337 336 334 332 328 327 328 327 327 328 327 325 324 326
339 338 336 334 334 336 334 339 339 339 339 336 338 339 338 337 337 336 334 330 328 327 327 327 327 328 328 328 326 325 325 324 323
335 338 340 341 338 335 337 339 339 338 337 337 338 336 327 327 325 330 330 327 326 326 326 329 329 328 328 326 324 323 323 321 319

GFSFLT1_850_thetae_024.txt.gz
Theta_e
345 346 345 344 345 345 346 347 349 351 350 345 345 346 345 341 342 353 354 354 350 345 340 340 341 333 335 332 327 327 328 333 335
342 346 346 346 346 347 347 349 350 346 345 344 345 345 345 343 341 345 353 354 350 345 337 339 334 333 333 330 329 328 329 333 336
340 342 345 346 347 347 348 349 351 351 345 344 345 345 345 342 342 342 347 344 342 342 326 326 324 328 325 324 327 327 326 335 335
336 338 343 346 347 347 349 350 351 353 350 345 345 346 346 340 339 343 342 340 339 333 327 322 320 319 320 324 328 328 326 328 332
334 336 340 343 346 348 348 351 351 353 354 354 345 345 346 345 338 339 336 338 336 331 326 321 319 321 323 321 324 332 335 331 334
336 343 343 343 346 348 349 351 352 352 353 354 354 355 354 351 348 342 332 339 340 330 327 321 321 332 332 326 323 324 323 324 326
335 339 345 345 346 348 350 351 352 352 353 353 354 355 356 356 355 347 335 335 343 332 327 324 322 330 334 332 321 321 323 323 323
334 343 346 347 347 349 352 353 353 355 355 355 354 355 356 357 356 352 347 343 341 342 332 327 324 329 335 329 323 320 323 328 324
334 340 346 347 348 349 352 354 355 356 355 355 355 356 357 357 354 350 349 347 343 345 341 331 327 326 333 332 325 326 324 323 326
335 335 343 346 348 348 352 354 356 356 356 355 355 354 357 355 351 348 348 348 347 346 343 332 327 327 335 337 329 327 327 325 326
337 337 338 345 347 348 352 352 354 353 354 353 349 354 349 351 347 345 346 347 347 347 346 340 332 329 331 336 338 333 329 331 330
338 339 340 343 346 348 351 350 351 348 353 352 355 350 348 342 341 344 345 347 346 344 342 339 336 335 334 339 337 337 334 332 331
336 337 341 345 345 346 349 349 350 349 353 351 343 338 340 339 341 345 346 346 346 346 343 341 339 339 339 338 337 337 331 332 331
340 342 344 345 346 347 349 350 352 352 349 346 350 352 343 340 341 342 346 347 346 346 344 340 339 338 338 337 338 337 329 332 331
344 346 346 349 350 350 349 351 351 352 353 343 336 333 335 338 343 346 346 347 345 345 344 341 340 339 338 338 337 334 332 326 328
345 346 346 347 348 348 348 344 338 335 333 334 334 333 336 342 345 346 344 345 344 342 342 341 340 339 338 337 335 334 330 327 328
342 342 342 343 343 341 338 334 333 335 335 335 336 341 345 345 345 343 343 343 342 341 340 340 339 338 336 334 334 329 327 327 328
344 343 345 345 345 333 334 336 337 337 336 338 340 344 343 342 343 342 343 342 341 340 339 338 338 334 331 331 330 327 327 327 328
344 339 336 334 336 338 340 341 340 338 341 342 343 342 342 341 340 339 339 337 336 334 330 330 329 329 330 327 328 327 326 325 325
343 344 343 341 335 338 341 340 340 341 338 334 334 342 341 338 337 336 335 333 331 329 327 327 327 327 328 327 327 326 324 323 322

GFSFLT1_850_thetae_027.txt.gz
Theta_e
343 347 346 345 345 344 345 346 348 350 351 353 350 351 350 351 346 355 354 351 351 349 344 342 341 336 333 337 343 337 336 335 336
339 344 346 346 345 345 343 344 347 348 349 354 349 355 350 347 347 345 351 351 350 352 346 342 341 335 335 329 337 334 337 327 338
337 339 343 346 346 345 345 344 344 348 349 354 347 347 348 348 347 345 344 352 354 351 348 341 342 333 322 325 324 330 320 333 338
337 337 339 344 346 347 347 346 346 348 351 353 352 348 348 349 349 349 345 350 352 348 351 343 332 324 321 319 327 326 324 319 330
336 336 337 339 344 346 348 349 348 348 350 354 357 356 348 347 347 346 345 340 350 348 350 340 330 323 319 320 332 324 323 323 336
336 336 339 339 340 344 347 350 350 349 350 350 354 357 357 354 348 347 344 339 340 344 341 337 332 323 319 324 332 325 327 323 327
335 336 337 343 343 339 347 349 351 351 351 351 353 355 357 359 356 350 349 348 341 336 335 335 335 326 321 327 332 327 325 324 325
335 334 335 344 347 346 350 350 353 353 354 353 353 355 357 358 359 357 357 356 351 348 341 339 337 328 321 326 332 335 330 328 326
335 334 334 341 348 349 349 351 354 356 355 355 354 356 357 358 360 359 358 357 356 353 349 345 338 327 323 326 334 338 333 327 326
335 334 333 334 347 350 351 353 355 357 357 356 356 358 357 359 361 359 359 357 354 355 352 346 343 338 325 328 339 335 334 334 327
334 334 334 334 340 349 351 354 356 357 359 358 358 357 359 360 360 360 357 352 354 353 351 347 343 339 333 335 339 335 336 336 328
333 333 333 335 333 345 350 353 356 358 359 359 359 359 360 360 362 359 356 351 350 351 350 348 345 342 341 341 338 337 336 338 336
331 333 333 334 337 341 350 353 355 359 360 360 360 360 361 361 360 356 354 350 352 351 349 347 345 342 341 340 338 336 337 338 336
336 336 339 340 344 346 352 354 356 357 359 360 361 361 360 359 355 353 354 356 351 351 349 347 343 343 342 341 341 340 339 337 334
343 342 343 344 347 349 354 354 355 357 358 359 357 356 357 356 354 354 354 353 348 347 348 345 343 342 342 341 342 340 338 338 334
346 347 348 348 350 353 354 357 357 358 357 356 356 356 355 355 354 350 350 347 348 346 347 343 342 341 341 341 340 338 337 336 333
349 351 354 355 354 356 357 357 358 359 357 357 355 355 349 347 345 347 346 345 347 343 343 343 342 341 341 340 337 336 334 332 329
346 347 350 352 354 354 356 356 355 355 350 351 352 348 349 348 346 346 344 344 343 342 342 341 341 339 339 336 331 328 327 328 327
348 349 350 352 353 353 353 352 351 352 351 350 348 344 344 343 343 342 341 340 341 340 338 337 336 336 335 332 331 331 328 327 328
347 347 349 350 351 351 350 350 350 347 341 343 342 347 344 344 344 343 341 339 336 335 332 328 329 329 329 328 327 328 328 326 325

GFSFLT1_850_thetae_030.txt.gz
Theta_e
345 347 347 348 347 346 349 350 351 352 356 356 355 351 352 349 347 351 350 348 355 351 349 345 345 344 340 337 331 330 320 317 320
341 344 347 347 348 348 348 350 351 351 354 356 355 353 349 350 345 346 346 346 352 354 348 346 343 343 341 326 326 324 325 324 327
341 341 346 347 346 348 348 348 350 351 351 353 355 353 348 346 346 344 345 345 350 349 353 347 344 342 340 328 325 325 326 324 327
341 339 344 347 346 346 347 346 349 350 351 352 354 354 348 345 346 346 344 348 349 351 350 351 343 342 340 325 323 324 329 325 326
340 338 338 340 346 347 347 346 347 349 351 352 353 353 351 343 345 348 347 343 348 348 350 350 350 342 334 328 322 323 331 324 327
339 339 338 340 345 347 348 347 346 347 347 351 354 358 350 349 346 349 348 341 339 346 346 345 343 344 341 329 322 321 332 323 325
338 337 338 340 340 345 348 349 348 348 349 350 352 358 354 347 354 348 345 345 347 344 342 342 340 341 340 333 323 320 331 325 328
338 337 338 338 341 343 343 351 350 350 350 351 352 356 357 356 353 352 350 353 354 353 350 346 345 345 343 337 324 320 331 329 328
339 337 335 340 341 344 340 350 352 351 352 352 351 353 354 354 359 358 358 358 358 358 357 355 352 348 346 340 326 321 332 333 331
341 339 335 337 345 345 346 351 352 354 353 354 352 351 352 354 357 359 359 359 359 359 358 357 355 353 348 342 329 324 333 337 333
337 338 337 336 335 345 347 350 354 356 356 355 355 353 356 356 359 360 361 361 360 360 359 358 356 352 346 341 335 326 338 339 334
332 333 335 337 336 335 344 350 352 355 359 357 357 358 358 361 361 364 363 361 360 359 357 356 354 350 346 341 337 337 338 337 335
330 330 330 335 334 334 334 346 352 355 357 361 359 361 359 363 364 365 362 359 360 356 356 355 351 349 345 343 342 341 341 340 338
329 329 330 330 330 337 336 347 354 357 358 362 362 363 364 364 365 363 361 360 354 353 353 351 349 346 345 343 342 342 341 339 339
341 342 342 340 340 339 349 351 354 360 363 364 363 364 365 365 363 361 359 353 347 348 349 350 347 345 344 342 342 341 341 341 340
345 346 348 348 345 349 358 357 357 362 363 363 363 363 363 362 360 355 353 354 353 351 348 347 346 343 341 341 342 343 342 340 339
349 351 354 352 354 358 360 360 361 362 363 362 361 360 359 356 353 353 353 348 347 348 346 345 343 343 342 343 342 340 338 335 333
352 354 357 357 358 359 362 362 362 361 360 358 357 356 355 355 352 351 348 348 346 345 344 342 342 342 342 341 339 337 329 329 328
352 354 355 356 358 359 360 360 357 355 355 354 353 352 352 350 349 348 347 346 345 344 341 341 342 340 338 338 335 331 329 327 326
347 349 350 350 349 350 350 352 354 355 354 351 344 339 345 347 346 343 341 340 340 339 337 337 336 336 335 332 330 327 327 327 326

GFSFLT1_850_thetae_033.txt.gz
Theta_e
344 345 344 343 343 346 348 348 349 350 351 351 351 352 348 343 352 353 351 352 353 352 351 350 343 342 340 340 341 326 323 321 319
342 342 346 345 344 344 347 348 349 350 352 352 352 352 353 346 342 351 350 349 350 352 353 350 347 345 343 336 328 326 322 320 320
342 342 345 347 345 344 345 347 348 350 350 351 352 352 353 352 344 344 345 346 348 348 353 351 349 347 344 342 339 324 322 322 323
343 343 343 346 347 346 345 346 349 349 350 351 353 353 352 352 351 341 345 345 345 344 353 352 348 347 344 342 341 332 321 326 325
342 342 343 343 347 348 347 346 349 349 350 351 351 352 352 351 351 347 342 344 345 342 342 351 353 352 347 343 341 330 321 327 328
342 342 341 342 345 348 349 348 348 350 349 349 349 350 351 350 349 350 342 341 344 344 342 339 346 350 350 348 343 337 324 323 330
340 340 339 340 347 347 349 349 348 349 349 348 347 348 349 348 347 347 342 340 342 346 345 345 344 341 343 344 346 342 334 321 330
338 338 340 339 346 347 347 348 347 347 349 349 346 346 346 345 343 343 343 342 342 344 348 347 348 347 346 347 347 346 342 324 327
339 341 340 339 343 348 348 347 347 346 347 350 347 345 345 345 339 341 342 343 343 345 350 352 351 353 352 351 350 349 347 331 323
337 337 338 338 337 340 346 347 346 347 346 348 348 345 346 348 345 341 343 343 347 353 355 356 356 356 357 356 354 351 347 337 325
337 337 337 337 338 338 338 341 344 347 348 347 347 348 348 349 349 350 350 353 354 359 360 360 359 358 358 356 353 350 346 338 329
332 336 334 338 339 339 339 344 342 349 350 349 349 349 350 350 350 352 354 357 360 361 362 361 361 358 356 354 350 347 343 336 331
333 330 332 333 334 333 341 342 345 347 353 352 351 351 351 351 352 353 355 358 361 362 362 362 359 355 354 351 349 345 342 339 335
334 333 331 330 330 328 334 338 346 351 353 354 354 353 354 352 354 355 357 361 363 362 361 359 356 354 351 336 347 345 342 340 341
342 342 341 340 334 330 331 331 339 345 350 351 357 356 361 359 361 362 363 364 364 360 359 356 355 353 350 347 346 344 342 342 341
345 344 343 345 344 341 339 338 338 339 347 353 360 361 362 364 367 368 367 365 361 356 353 354 353 350 348 346 344 342 341 341 340
351 352 349 346 350 346 349 354 351 352 359 360 363 363 366 367 366 365 363 360 354 348 351 351 350 347 345 344 342 342 342 341 340
355 356 357 356 356 359 360 359 362 363 363 364 364 366 365 364 362 359 354 353 349 347 348 347 346 344 342 342 342 341 340 337 335
355 356 356 359 362 362 363 363 364 364 364 362 359 357 356 358 355 353 350 348 345 346 345 343 343 342 340 341 340 337 331 329 328
352 355 357 358 360 361 361 359 359 358 358 356 353 351 347 345 346 349 345 346 344 342 341 341 341 341 340 340 339 333 330 328 326

GFSFLT1_850_thetae_036.txt.gz
Theta_e
343 340 341 342 343 343 344 345 346 347 347 348 348 348 349 349 346 342 345 348 349 347 349 348 347 348 343 336 338 331 330 325 320
343 341 340 341 341 342 343 345 345 346 347 347 347 347 349 350 347 340 345 346 346 349 350 349 350 345 340 335 332 328 324 322 320
343 341 341 340 341 341 343 343 344 345 346 347 347 347 348 350 350 341 340 345 348 351 352 352 351 349 346 343 339 329 323 321 321
343 341 342 342 341 341 343 344 346 345 346 347 348 348 349 350 351 348 341 341 348 350 350 350 351 351 349 347 344 342 339 324 322
342 341 342 344 343 345 342 343 345 346 346 347 347 348 349 350 351 351 347 341 340 344 348 349 350 352 350 348 346 343 342 339 322
341 342 341 343 344 343 342 342 344 345 346 345 346 349 350 350 351 351 351 347 340 339 341 346 347 351 351 349 348 345 343 340 327
342 343 342 341 343 345 346 345 345 345 345 345 347 348 350 350 351 350 349 348 345 338 339 342 342 344 351 352 351 350 346 343 338
341 341 341 341 341 341 343 345 345 346 345 346 347 348 349 349 350 349 348 347 346 341 340 341 341 344 344 346 348 350 349 347 345
339 338 339 340 339 340 343 344 346 346 346 346 347 348 348 349 349 350 349 346 344 345 340 341 344 345 345 344 346 348 349 349 347
336 337 339 339 339 339 343 345 347 347 347 347 348 348 348 349 348 348 348 348 345 342 343 343 344 348 350 351 352 352 352 351 349
336 336 337 338 341 343 344 345 347 347 347 348 348 350 351 349 349 347 348 348 347 344 343 345 345 350 353 353 353 355 355 354 352
333 337 336 336 337 340 346 345 346 347 347 347 349 350 350 349 348 347 347 348 347 346 346 347 348 352 354 355 356 355 356 353 349
330 331 333 334 336 337 338 336 338 346 346 346 346 347 347 349 348 348 347 348 350 351 352 350 352 356 357 357 357 356 353 348 345
331 328 329 330 335 336 336 340 344 346 344 346 344 345 345 349 350 348 347 348 353 354 357 358 357 359 357 350 355 354 349 344 342
338 334 332 332 331 333 334 335 334 340 345 342 343 348 348 347 349 349 351 352 355 358 358 359 362 358 353 346 352 349 345 343 341
342 341 338 336 334 331 331 330 330 331 333 338 343 349 349 349 351 352 354 356 359 360 358 359 357 355 348 347 346 345 343 342 342
345 342 340 341 342 339 335 332 332 332 336 342 349 353 354 354 354 355 356 360 360 359 357 357 354 351 347 345 343 344 344 342 340
351 348 343 343 344 343 339 338 339 342 345 346 357 358 361 360 361 361 362 364 363 360 355 353 350 346 341 341 339 337 341 341 341
353 348 349 352 355 360 360 360 357 353 357 358 357 361 362 359 358 359 359 359 357 352 347 338 348 343 341 342 341 341 340 339 337
354 353 353 355 358 361 363 363 360 362 363 361 360 359 357 357 356 353 351 349 343 334 332 340 345 344 342 341 340 339 336 329 328

GFSFLT1_850_thetae_042.txt.gz
Theta_e
341 342 345 345 345 344 342 341 342 342 343 344 345 345 346 346 347 347 347 348 346 340 343 345 349 345 345 346 347 343 339 338 339
337 338 340 344 344 345 344 342 341 341 342 341 344 344 345 346 347 347 347 347 348 344 339 344 348 347 344 345 347 345 338 337 331
338 338 337 340 342 343 343 343 343 342 341 341 342 343 344 345 345 346 346 347 347 346 341 342 346 346 345 346 346 346 338 337 334
336 338 339 339 339 341 341 342 343 342 342 342 342 342 344 344 345 346 346 347 346 348 342 338 344 343 346 348 347 344 336 332 334
333 336 339 340 340 340 341 341 342 342 342 342 342 342 342 343 344 345 345 346 346 347 347 338 340 340 345 348 347 344 339 329 327
334 334 337 340 340 339 340 340 341 341 341 341 341 342 343 343 343 344 344 345 346 346 348 341 338 340 343 347 347 347 345 344 342
328 330 336 339 341 340 340 340 340 341 341 341 342 342 342 342 343 343 343 344 346 346 346 348 338 339 340 347 347 348 348 348 347
331 330 335 338 341 341 341 340 341 341 341 341 342 342 343 342 342 343 343 344 345 346 346 347 348 338 340 345 348 348 348 348 349
329 330 330 331 339 341 342 341 342 341 341 342 341 341 342 342 343 343 343 344 345 346 346 347 348 348 341 340 346 347 347 348 348
325 327 327 327 331 339 342 342 342 342 342 342 341 342 342 343 343 343 343 344 345 345 346 347 348 347 348 344 339 341 343 347 348
326 326 326 326 327 330 338 342 342 343 342 342 342 342 343 343 343 344 344 345 345 345 346 346 347 348 347 348 346 342 340 344 345
326 327 327 327 328 329 333 341 344 343 342 342 342 342 344 343 343 344 346 347 347 346 347 346 347 348 348 348 347 347 347 342 344
326 326 326 328 329 328 336 336 341 341 340 340 341 342 342 342 343 344 346 346 347 348 348 347 348 348 348 348 348 348 348 347 345
327 327 328 327 328 329 333 339 340 340 338 338 339 338 340 341 343 344 345 348 349 350 352 352 351 350 352 351 349 350 350 349 348
329 328 328 328 329 331 335 336 339 339 339 339 340 341 342 343 344 345 347 348 349 351 350 350 352 354 354 354 353 351 350 353 351
330 331 330 331 334 334 334 336 339 341 342 343 343 345 346 346 348 350 351 350 352 354 356 357 357 358 357 356 355 351 349 352 351
346 348 343 336 331 331 335 335 338 340 343 344 343 341 342 343 345 349 352 355 356 356 357 358 356 357 357 356 357 354 352 352 346
354 352 351 347 347 348 350 351 348 346 342 339 339 340 340 345 348 346 347 349 353 357 358 357 358 358 356 353 350 346 349 343 339
354 353 352 350 351 350 350 348 346 345 346 347 347 349 351 352 352 350 350 351 354 356 354 353 357 352 344 338 336 340 337 331 332
347 345 343 342 344 344 344 344 345 346 348 348 349 352 355 357 356 355 353 353 351 347 341 341 338 336 331 332 333 334 331 331 330

GFSFLT1_850_thetae_045.txt.gz
Theta_e
345 346 346 347 347 346 345 344 343 343 342 342 343 345 346 346 346 345 346 346 346 347 347 342 339 343 345 347 347 347 348 341 339
343 345 346 346 346 346 345 344 344 342 341 339 340 342 343 345 346 346 346 346 346 347 348 343 340 343 346 345 345 347 347 341 335
340 342 344 345 346 346 345 345 344 344 342 340 338 338 341 342 344 345 345 346 346 346 347 347 340 343 347 345 345 345 347 344 335
337 338 339 341 343 344 345 345 345 344 344 342 340 339 340 341 342 343 345 345 346 346 346 347 344 339 343 346 343 344 346 346 338
335 337 338 339 339 341 344 344 344 343 343 343 343 341 340 340 340 341 342 344 345 345 346 346 347 341 340 344 344 345 347 346 340
333 332 336 336 339 339 339 341 342 342 342 341 342 343 342 341 341 341 342 343 344 344 345 346 347 347 339 340 342 342 347 346 342
330 331 330 333 336 338 338 339 341 341 341 341 341 342 342 342 342 341 341 341 343 344 344 345 346 347 345 337 339 339 346 346 344
328 332 333 329 332 333 338 339 339 340 340 341 341 341 342 342 342 341 341 342 342 343 344 344 346 345 347 341 336 338 342 346 346
329 329 327 329 329 333 337 340 340 340 340 340 341 341 341 342 342 342 342 342 342 342 343 344 345 346 345 347 340 335 336 343 346
328 326 327 327 330 329 330 333 340 341 341 340 340 341 341 341 342 342 342 342 342 342 343 343 344 346 346 345 345 342 334 338 344
328 326 326 326 326 326 326 329 336 341 341 341 340 341 341 341 341 342 343 344 343 343 343 343 343 345 346 346 345 344 344 340 338
325 326 327 328 327 327 326 326 329 338 341 341 340 341 341 342 342 342 343 343 343 343 345 344 344 344 345 346 347 346 344 346 347
325 326 327 327 327 326 326 327 329 335 338 341 341 342 342 342 342 342 342 342 343 344 345 345 346 346 346 346 346 347 347 347 348
325 325 326 326 327 326 328 328 331 332 336 338 343 342 341 341 342 342 343 346 347 348 350 352 350 348 347 347 346 347 347 347 349
325 325 326 327 326 327 327 327 328 333 336 337 339 340 340 340 341 343 345 345 347 350 350 351 347 354 354 352 350 352 351 351 351
332 326 329 327 326 326 327 330 334 335 336 337 338 338 338 340 342 343 345 347 349 352 351 352 343 351 355 355 355 354 355 355 355
346 338 333 330 329 332 334 335 336 338 340 340 341 342 343 342 343 344 347 350 353 355 355 355 356 352 355 356 356 356 356 356 355
350 348 341 337 337 344 344 345 342 340 339 340 341 343 344 345 345 346 347 350 354 356 355 356 356 356 357 357 357 357 357 355 355
359 358 353 351 349 348 347 347 347 347 347 347 346 345 345 346 347 347 347 348 351 354 356 354 355 356 356 357 355 355 351 348 344
351 346 344 344 341 341 340 339 339 342 343 345 347 348 350 351 352 350 350 350 351 351 351 352 353 353 345 341 334 333 333 334 334

GFSFLT1_850_thetae_048.txt.gz
Theta_e
346 348 349 348 349 349 348 347 348 350 350 344 344 344 344 344 344 344 349 350 351 352 351 349 351 351 343 342 349 344 344 347 342
339 343 348 349 349 350 350 350 349 349 345 339 340 343 344 345 344 345 351 349 348 352 352 351 352 353 342 341 344 345 346 348 343
337 338 344 347 349 349 350 351 351 352 347 339 335 338 341 342 344 344 345 346 346 347 350 349 351 353 347 343 345 347 343 349 349
336 338 342 347 348 348 350 350 351 353 354 349 343 341 338 339 341 342 342 344 345 345 346 346 346 350 341 342 346 347 344 345 352
335 337 339 343 345 347 348 349 350 350 352 354 353 346 341 338 337 338 340 341 343 344 345 346 346 346 346 339 348 349 344 343 350
334 335 337 339 340 341 344 347 349 349 350 351 353 354 351 342 339 338 339 338 339 341 343 345 346 346 346 343 337 341 342 342 343
332 334 336 337 339 339 340 343 347 349 349 350 352 353 354 349 342 339 338 338 338 340 341 343 344 346 346 345 341 336 339 345 343
332 334 335 336 340 341 343 344 346 349 349 348 350 351 351 344 342 342 341 340 340 341 341 342 343 344 345 345 345 344 336 337 339
329 329 329 332 337 340 344 347 349 350 349 348 348 349 346 341 342 342 342 342 342 342 342 342 342 343 344 345 345 344 343 334 334
329 329 330 332 336 339 342 346 346 342 345 349 349 346 344 343 344 343 342 342 343 342 342 344 342 342 343 344 345 345 344 341 335
329 329 330 332 333 334 340 341 342 348 349 348 343 341 342 343 343 343 344 343 342 342 343 343 342 342 342 343 344 345 345 344 345
329 330 330 331 331 331 332 335 339 345 347 350 350 343 341 341 342 342 342 342 342 343 349 351 356 357 355 351 350 346 345 346 346
330 329 329 330 330 331 332 333 337 343 347 345 340 342 342 341 341 341 341 342 345 350 350 355 357 358 357 357 358 357 354 352 351
336 335 334 332 333 333 331 335 339 339 344 337 332 341 344 343 343 342 342 345 349 352 353 355 354 351 353 351 349 347 346 349 352
338 336 337 333 334 334 335 337 328 328 330 328 334 339 347 343 343 345 350 344 352 355 356 355 352 349 347 346 341 344 337 337 353
343 342 340 335 338 334 337 333 328 327 327 329 335 341 345 346 345 346 349 354 352 356 357 357 357 357 354 353 349 341 336 336 351
346 345 340 342 340 336 345 338 329 330 332 334 337 342 343 342 342 349 350 357 358 358 358 358 357 356 355 349 344 354 342 348 355
347 344 354 350 350 354 354 340 338 338 337 339 338 339 342 349 354 346 357 359 360 360 359 359 359 359 358 356 358 356 352 355 357
353 353 353 355 356 358 362 357 345 356 343 342 348 351 356 357 358 359 360 356 357 359 360 360 359 359 361 359 356 354 354 356 357
350 349 349 350 354 355 359 358 355 353 350 349 354 354 352 349 350 347 346 348 353 352 353 353 354 353 354 356 356 353 343 340 345